Weather History for KAGS - May, 2013

Change the Weather History Date:

Wednesday, May 22, 2013

  Actual Average Record
Temperature  
Mean Temperature 74 °F 73 °F  
Max Temperature 86 °F 87 °F 97 °F (1941)
Min Temperature 61 °F 59 °F 42 °F (1954)
Degree Days  
Heating Degree Days 0 0  
Month to date heating degree days 34 18  
Since 1 July heating degree days 2385 2470  
Cooling Degree Days 9 8  
Month to date cooling degree days 90 124  
Year to date cooling degree days 153 197  
Growing Degree Days 24 (Base 50)    
Moisture  
Dew Point 65 °F    
Average Humidity 76    
Maximum Humidity 100    
Minimum Humidity 51    
Precipitation  
Precipitation 0.00 in 0.09 in 3.39 in (1967)
Month to date precipitation 2.22 1.68  
Year to date precipitation 19.56 16.53  
Sea Level Pressure  
Sea Level Pressure 29.99 in    
Wind  
Wind Speed 4 mph (SSE)    
Max Wind Speed 15 mph    
Max Gust Speed 21 mph    
Visibility 4 miles    
Events Fog    
T = Trace of Precipitation, MM = Missing Value Source: NWS Daily Summary

Daily Weather History Graph

Daily Weather History Graph

Search for Another Location

Airport or City:

Trip Planner

Search our weather history database for the weather conditions in past years. The results will help you decide how hot, cold, wet, or windy it might be!

Date:

Astronomy

May. 22, 2013 Rise Set
Actual Time 6:23 AM EDT 8:26 PM EDT
Civil Twilight 5:55 AM EDT 8:54 PM EDT
Nautical Twilight 5:21 AM EDT 9:28 PM EDT
Astronomical Twilight 4:45 AM EDT 10:04 PM EDT
Moon 5:53 PM EDT (5/22) 4:18 AM EDT (5/22)
Length of Visible Light 14h 58m
Length of Day
14h 02m
Waxing Gibbous, 91% of the Moon is Illuminated
May 22
Waxing Gibbous
May 25
Full
May 31
Last Quarter
Jun 8
New
Jun 16
First Quarter

Hourly Weather History & Observations

Time (EDT) Temp. Heat Index Dew Point Humidity Pressure Visibility Wind Dir Wind Speed Gust Speed Precip Events Conditions
12:14 AM 64.4 °F - 62.6 °F 94% 30.01 in 1.8 mi Calm Calm - N/A   Clear
12:16 AM 64.4 °F - 62.6 °F 94% 30.01 in 1.0 mi Calm Calm - N/A   Mist
12:23 AM 62.6 °F - 62.6 °F 100% 30.01 in 0.5 mi Calm Calm - N/A Fog Fog
12:36 AM 62.6 °F - 62.6 °F 100% 30.01 in 0.2 mi Calm Calm - N/A Fog Fog
12:44 AM 62.6 °F - 62.6 °F 100% 30.01 in 0.2 mi Calm Calm - N/A Fog Fog
12:53 AM 64.0 °F - 64.0 °F 100% 30.00 in 0.2 mi Calm Calm - N/A Fog Fog
1:01 AM 64.4 °F - 64.4 °F 100% 30.01 in 0.5 mi Calm Calm - N/A Fog Fog
1:10 AM 64.4 °F - 64.4 °F 100% 30.01 in 0.2 mi Calm Calm - N/A Fog Fog
1:19 AM 64.4 °F - 64.4 °F 100% 30.01 in 0.2 mi Calm Calm - N/A Fog Fog
1:35 AM 62.6 °F - 62.6 °F 100% 30.00 in 0.2 mi Calm Calm - N/A Fog Fog
1:50 AM 62.6 °F - 62.6 °F 100% 30.01 in 1.0 mi Calm Calm - N/A   Mist
1:53 AM 63.0 °F - 62.1 °F 97% 30.00 in 3.0 mi Calm Calm - N/A   Overcast
2:09 AM 62.6 °F - 60.8 °F 94% 30.01 in 1.8 mi Calm Calm - N/A   Overcast
2:20 AM 62.6 °F - 60.8 °F 94% 30.00 in 0.2 mi Calm Calm - N/A Fog Fog
2:38 AM 62.6 °F - 60.8 °F 94% 30.00 in 1.0 mi Calm Calm - N/A   Mist
2:43 AM 62.6 °F - 60.8 °F 94% 30.00 in 3.0 mi Calm Calm - N/A   Mostly Cloudy
2:48 AM 60.8 °F - 60.8 °F 100% 30.00 in 0.8 mi Calm Calm - N/A   Mist
2:53 AM 61.0 °F - 61.0 °F 100% 30.00 in 0.2 mi Calm Calm - N/A Fog Fog
3:45 AM 64.4 °F - 62.6 °F 94% 29.98 in 0.5 mi Calm Calm - N/A Fog Fog
3:53 AM 64.0 °F - 63.0 °F 96% 29.97 in 0.2 mi Calm Calm - N/A Fog Fog
4:53 AM 63.0 °F - 63.0 °F 100% 29.98 in 0.2 mi Calm Calm - N/A Fog Fog
5:03 AM 62.6 °F - 62.6 °F 100% 29.99 in 0.5 mi Calm Calm - N/A Fog Fog
5:20 AM 64.4 °F - 62.6 °F 94% 29.99 in 0.2 mi Calm Calm - N/A Fog Fog
5:38 AM 62.6 °F - 62.6 °F 100% 29.99 in 0.2 mi Calm Calm - N/A Fog Fog
5:53 AM 63.0 °F - 63.0 °F 100% 29.99 in 0.2 mi Calm Calm - N/A Fog Fog
6:25 AM 62.6 °F - 62.6 °F 100% 29.99 in 0.2 mi Calm Calm - N/A Fog Fog
6:53 AM 64.0 °F - 64.0 °F 100% 30.00 in 0.2 mi Calm Calm - N/A Fog Fog
7:53 AM 64.9 °F - 64.9 °F 100% 30.01 in 0.2 mi Calm Calm - N/A Fog Fog
8:26 AM 66.2 °F - 64.4 °F 94% 30.01 in 0.5 mi South 4.6 mph - N/A Fog Fog
8:53 AM 66.0 °F - 66.0 °F 100% 30.02 in 0.8 mi SSE 4.6 mph - N/A   Overcast
9:02 AM 66.2 °F - 66.2 °F 100% 30.02 in 1.5 mi South 4.6 mph - N/A   Overcast
9:12 AM 66.2 °F - 66.2 °F 100% 30.03 in 2.5 mi SSW 3.5 mph - N/A   Overcast
9:22 AM 66.2 °F - 66.2 °F 100% 30.03 in 4.0 mi SSW 3.5 mph - N/A   Overcast
9:53 AM 68.0 °F - 66.9 °F 96% 30.02 in 6.0 mi Calm Calm - N/A   Overcast
10:26 AM 71.6 °F - 68.0 °F 88% 30.02 in 4.0 mi SE 3.5 mph - N/A   Overcast
10:53 AM 73.0 °F - 69.1 °F 87% 30.02 in 8.0 mi SE 6.9 mph - N/A   Overcast
11:53 AM 75.9 °F - 70.0 °F 82% 30.02 in 10.0 mi ESE 6.9 mph - N/A   Mostly Cloudy
12:53 PM 79.0 °F - 70.0 °F 74% 30.01 in 10.0 mi SE 5.8 mph - N/A   Mostly Cloudy
1:20 PM 80.6 °F 83.9 °F 69.8 °F 70% 30.00 in 10.0 mi SSE 10.4 mph - N/A   Scattered Clouds
1:53 PM 81.0 °F 84.1 °F 69.1 °F 67% 29.99 in 10.0 mi ESE 5.8 mph - N/A   Scattered Clouds
2:53 PM 82.9 °F 85.8 °F 68.0 °F 60% 29.96 in 10.0 mi SSE 5.8 mph - N/A   Scattered Clouds
3:53 PM 84.9 °F 87.6 °F 66.9 °F 55% 29.93 in 10.0 mi ESE 9.2 mph - N/A   Clear
4:53 PM 84.0 °F 86.3 °F 66.0 °F 55% 29.91 in 10.0 mi ESE 8.1 mph - N/A   Scattered Clouds
5:53 PM 84.9 °F 87.1 °F 66.0 °F 53% 29.89 in 10.0 mi SE 9.2 mph - N/A   Clear
6:53 PM 84.0 °F 85.8 °F 64.9 °F 53% 29.88 in 10.0 mi SSE 13.8 mph - N/A   Clear
7:53 PM 79.0 °F - 66.9 °F 66% 29.91 in 10.0 mi South 8.1 mph - N/A   Clear
8:53 PM 75.0 °F - 66.0 °F 73% 29.91 in 10.0 mi SSE 5.8 mph - N/A   Clear
9:53 PM 73.0 °F - 64.9 °F 76% 29.94 in 10.0 mi South 6.9 mph - N/A   Clear
10:53 PM 70.0 °F - 64.9 °F 84% 29.95 in 10.0 mi SSE 3.5 mph - N/A   Clear
11:53 PM 69.1 °F - 66.0 °F 90% 29.94 in 10.0 mi ESE 3.5 mph - N/A   Clear